Tracking 27380 objects as of 5-Jun-2023
HD Live streaming from Space Station
objects crossing your sky now

STARLINK-1414

Track STARLINK-1414 now!
10-day predictions
STARLINK-1414 is classified as:


NORAD ID: 45690
Int'l Code: 2020-035AK
Perigee: 554.0 km
Apogee: 554.8 km
Inclination: 53.1 °
Period: 95.6 minutes
Semi major axis: 6925 km
RCS: Unknown
Launch date: June 4, 2020
Source: United States (US)
Launch site: AIR FORCE EASTERN TEST RANGE (AFETR)
Your satellite tracking list
Your tracking list is empty




NASA's NSSDC Master Catalog

Two Line Element Set (TLE):
1 45690U 20035AK  23155.62377733  .00000162  00000-0  29770-4 0  9996
2 45690  53.0515 266.5203 0000567  90.7750 269.3304 15.06382637166725
Source of the keplerian elements: AFSPC